Regional Weather Roundup
Issued by NWS

Home | Current Version | Previous Version | Text Only | Print | Product List | Glossary Off
Versions: 1 2 3 4 5 6 7 8 9 10 11 12 13 14 15 16 17 18 19 20 21 22 23 24 25 26 27 28 29 30 31 32 33 34 35 36 37 38 39 40 41 42 43 44 45 46

000
ASUS45 KCYS 012210
RWRWY

WYOMING REGIONAL WEATHER ROUNDUP
NATIONAL WEATHER SERVICE CHEYENNE WY
400 PM MDT WED OCT 01 2014

NOTE:  "FAIR" INDICATES FEW OR NO CLOUDS BELOW 12,000 FEET
WITH NO SIGNIFICANT WEATHER AND/OR OBSTRUCTIONS TO VISIBILITY.

WYZ001-012300-
YELLOWSTONE NATIONAL PARK

CITY           SKY/WX    TMP DP  RH WIND       PRES   REMARKS
LK YELLOWSTONE   N/A     39  30  70 W7        30.08S WCI  34
W YELLOWSTONE  NOT AVBL

$$
WYZ002>013-054>058-071-098>099-012300-
NORTHERN WYOMING

CITY           SKY/WX    TMP DP  RH WIND       PRES   REMARKS
JACKSON        PTSUNNY   43  30  61 CALM      30.07R
CODY           MOSUNNY   52  34  50 CALM      29.98F
GREYBULL       PTSUNNY   58  31  35 CALM      29.95R
WORLAND        PTSUNNY   55  33  43 VRB3      29.97S
SHERIDAN       PTSUNNY   56  35  45 NW14      29.94S
BUFFALO        CLOUDY    50  36  58 N9        29.98R
GILLETTE       CLOUDY    52  38  58 NW14G21   29.94R
HULETT         CLOUDY    52  37  58 W7        29.94
NEWCASTLE      LGT RAIN  46  37  71 NW13G20   29.94

$$
WYZ014>020-022>026-101>103-012300-
CENTRAL WYOMING

CITY           SKY/WX    TMP DP  RH WIND       PRES   REMARKS
BIG PINEY      CLOUDY    43  25  49 N20       30.05R
PINEDALE       MOCLDY    45  28  53 NW20G25   30.04R
DUBOIS         CLOUDY    43  21  42 N10G17    30.01R
LANDER         LGT RAIN  40  37  89 W10       30.04R FOG     WCI  33
RIVERTON       CLOUDY    44  35  70 NE14      30.03R
CASPER         LGT RAIN  41  38  89 N10       30.00R
DOUGLAS        CLOUDY    46  41  82 N9        29.98S

$$
WYZ021-027>030-104>119-012300-
SOUTHERN WYOMING

CITY           SKY/WX    TMP DP  RH WIND       PRES   REMARKS
EVANSTON       MOSUNNY   43  31  62 SW12      30.10S
KEMMERER       PTCLDY    45  28  53 W16G23    30.08S
FORT BRIDGER   MOCLDY    45  32  59 N24       30.11R
ROCK SPRINGS   CLOUDY    45  32  60 W17       30.04R
DIXON          RAIN      39  35  87 W6        30.09R WCI  34
RAWLINS        MOSUNNY   49  21  33 W14       29.99R
SARATOGA       CLOUDY    46  32  57 W16       30.01R
LARAMIE        CLOUDY    39  34  82 VRB5      29.99S
CHEYENNE       LGT RAIN  39  34  82 NW15G24   29.99R WCI  31
TORRINGTON     CLOUDY    54  42  64 N16G26    29.91R
PINE BLUFFS    RAIN      45  41  87 W17G26    29.95R

$$



USA.gov is the U.S. government's official web portal to all federal, state and local government web resources and services.